Weather History for Lawton, OK

Change the Weather History Date:

Monday, March 18, 2013

  Actual Average Record
Temperature  
Mean Temperature 52 °F -  
Max Temperature 64 °F 66 °F 87 °F (1963)
Min Temperature 41 °F 41 °F 20 °F (1965)
Degree Days  
Heating Degree Days 12    
Growing Degree Days 2 (Base 50)    
Moisture  
Dew Point 36 °F    
Average Humidity 62    
Maximum Humidity 89    
Minimum Humidity 28    
Precipitation  
Precipitation 0.00 in - - ()
Sea Level Pressure  
Sea Level Pressure 29.88 in    
Wind  
Wind Speed 13 mph (NNE)    
Max Wind Speed 29 mph    
Max Gust Speed 37 mph    
Visibility 8 miles    
Events      
Averages and records for this station are not official NWS values.
T = Trace of Precipitation, MM = Missing Value Source: NWS Daily Summary

Daily Weather History Graph

Daily Weather History Graph

Search for Another Location

Airport:

Trip Planner

Search our weather history database for the weather conditions in past years. The results will help you decide how hot, cold, wet, or windy it might be!

Date:

Astronomy

Mar. 18, 2013 Rise Set
Actual Time 7:39 AM CDT 7:43 PM CDT
Civil Twilight 7:14 AM CDT 8:09 PM CDT
Nautical Twilight 6:45 AM CDT 8:38 PM CDT
Astronomical Twilight 6:15 AM CDT 9:08 PM CDT
Moon 11:54 AM CDT (3/18) 1:30 AM CDT (3/18)
Length of Visible Light 12h 54m
Length of Day
12h 04m
Waxing Crescent, 41% of the Moon is Illuminated
Mar 18
Waxing Crescent
Mar 19
First Quarter
Mar 27
Full
Apr 2
Last Quarter
Apr 10
New

Hourly Weather History & Observations

Time (CDT) Temp. Windchill Dew Point Humidity Pressure Visibility Wind Dir Wind Speed Gust Speed Precip Events Conditions
12:53 AM 45.0 °F 41.2 °F 39.9 °F 82% 29.65 in 8.0 mi NE 6.9 mph - N/A   Clear
1:53 AM 44.1 °F 40.8 °F 39.0 °F 82% 29.64 in 8.0 mi NNE 5.8 mph - N/A   Clear
2:53 AM 42.1 °F - 37.9 °F 85% 29.64 in 7.0 mi Calm Calm - N/A   Clear
3:53 AM 44.1 °F 34.2 °F 39.0 °F 82% 29.68 in 7.0 mi North 28.8 mph 36.8 mph N/A   Clear
4:53 AM 43.0 °F 35.4 °F 37.9 °F 82% 29.69 in 7.0 mi NNE 16.1 mph 21.9 mph N/A   Clear
5:48 AM 42.8 °F 33.3 °F 37.4 °F 81% 29.76 in 6.0 mi NNE 24.2 mph 33.4 mph N/A   Scattered Clouds
5:53 AM 42.1 °F 32.3 °F 37.9 °F 85% 29.79 in 6.0 mi North 24.2 mph 33.4 mph N/A   Scattered Clouds
6:04 AM 42.8 °F 34.0 °F 37.4 °F 81% 29.79 in 6.0 mi NNE 20.7 mph 32.2 mph N/A   Mostly Cloudy
6:53 AM 44.1 °F 36.5 °F 39.0 °F 82% 29.84 in 6.0 mi NNE 17.3 mph - N/A   Haze
7:37 AM 41.0 °F 35.2 °F 37.4 °F 87% 29.85 in 6.0 mi North 9.2 mph - N/A   Scattered Clouds
7:53 AM 42.1 °F 35.7 °F 39.0 °F 89% 29.88 in 6.0 mi NNE 11.5 mph - N/A   Scattered Clouds
8:04 AM 42.8 °F 35.1 °F 39.2 °F 87% 29.88 in 5.0 mi North 16.1 mph 23.0 mph N/A   Mostly Cloudy
8:53 AM 43.0 °F 36.0 °F 39.0 °F 86% 29.93 in 4.0 mi North 13.8 mph 24.2 mph N/A   Overcast
9:49 AM 46.4 °F 38.7 °F 39.2 °F 76% 29.94 in 6.0 mi North 20.7 mph - N/A   Haze
9:53 AM 46.9 °F - 39.0 °F 74% 29.95 in 6.0 mi North 18.4 mph - N/A   Haze
10:53 AM 52.0 °F - 39.0 °F 61% 29.96 in 10.0 mi North 17.3 mph - N/A   Clear
11:53 AM 57.0 °F - 37.9 °F 49% 29.98 in 10.0 mi North 17.3 mph 21.9 mph N/A   Clear
12:53 PM 59.0 °F - 37.0 °F 44% 29.98 in 10.0 mi North 16.1 mph 23.0 mph N/A   Clear
1:53 PM 62.1 °F - 37.0 °F 39% 29.97 in 10.0 mi North 17.3 mph - N/A   Clear
2:53 PM 63.0 °F - 36.0 °F 37% 29.96 in 10.0 mi North 10.4 mph 18.4 mph N/A   Clear
3:53 PM 64.0 °F - 32.0 °F 30% 29.94 in 10.0 mi NNE 11.5 mph 21.9 mph N/A   Clear
4:53 PM 64.0 °F - 30.0 °F 28% 29.94 in 10.0 mi Variable 5.8 mph - N/A   Clear
5:53 PM 63.0 °F - 30.0 °F 29% 29.97 in 10.0 mi North 11.5 mph - N/A   Clear
6:53 PM 61.0 °F - 28.9 °F 30% 29.98 in 10.0 mi NNE 9.2 mph - N/A   Clear
7:53 PM 55.0 °F - 30.9 °F 40% 30.00 in 10.0 mi NE 6.9 mph - N/A   Clear
8:53 PM 51.1 °F - 30.0 °F 44% 30.01 in 10.0 mi NE 6.9 mph - N/A   Clear
9:53 PM 50.0 °F - 28.9 °F 44% 30.01 in 10.0 mi NE 8.1 mph - N/A   Clear
10:53 PM 48.9 °F - 28.0 °F 44% 30.00 in 10.0 mi NE 9.2 mph - N/A   Clear
11:53 PM 48.0 °F - 27.0 °F 44% 30.00 in 10.0 mi NE 4.6 mph - N/A   Clear